"datetime","# probes","# resolvers","can_ipv6","can_ipv6_prbs","can_tcp","can_tcp_prbs","can_tcp6","can_tcp6_prbs","does_ecs","does_ecs_prbs","does_flagday","does_flagday_prbs","does_rov4","does_rov4_prbs","does_rov6","does_rov6_prbs","does_qnamemin","doesnt_qnamemin","does_qnamemin_prbs","doesnt_qnamemin_prbs","does_nxdomain","doesnt_nxdomain","does_nxdomain_prbs","doesnt_nxdomain_prbs","has_ta_19036","hasnt_ta_19036","has_ta_19036_prbs","hasnt_ta_19036_prbs","has_ta_20326","hasnt_ta_20326","has_ta_20326_prbs","hasnt_ta_20326_prbs","can_rsamd5","cannot_rsamd5","broken_rsamd5","can_rsamd5_prbs","cannot_rsamd5_prbs","broken_rsamd5_prbs","can_dsa","cannot_dsa","broken_dsa","can_dsa_prbs","cannot_dsa_prbs","broken_dsa_prbs","can_rsasha1","cannot_rsasha1","broken_rsasha1","can_rsasha1_prbs","cannot_rsasha1_prbs","broken_rsasha1_prbs","can_dsansec3","cannot_dsansec3","broken_dsansec3","can_dsansec3_prbs","cannot_dsansec3_prbs","broken_dsansec3_prbs","can_rsansec3","cannot_rsansec3","broken_rsansec3","can_rsansec3_prbs","cannot_rsansec3_prbs","broken_rsansec3_prbs","can_rsasha256","cannot_rsasha256","broken_rsasha256","can_rsasha256_prbs","cannot_rsasha256_prbs","broken_rsasha256_prbs","can_rsasha512","cannot_rsasha512","broken_rsasha512","can_rsasha512_prbs","cannot_rsasha512_prbs","broken_rsasha512_prbs","can_eccgost","cannot_eccgost","broken_eccgost","can_eccgost_prbs","cannot_eccgost_prbs","broken_eccgost_prbs","can_ecdsa256","cannot_ecdsa256","broken_ecdsa256","can_ecdsa256_prbs","cannot_ecdsa256_prbs","broken_ecdsa256_prbs","can_ecdsa384","cannot_ecdsa384","broken_ecdsa384","can_ecdsa384_prbs","cannot_ecdsa384_prbs","broken_ecdsa384_prbs","can_ed25519","cannot_ed25519","broken_ed25519","can_ed25519_prbs","cannot_ed25519_prbs","broken_ed25519_prbs","can_ed448","cannot_ed448","broken_ed448","can_ed448_prbs","cannot_ed448_prbs","broken_ed448_prbs","can_gost","cannot_gost","broken_gost","can_gost_prbs","cannot_gost_prbs","broken_gost_prbs","can_sha384","cannot_sha384","broken_sha384","can_sha384_prbs","cannot_sha384_prbs","broken_sha384_prbs","is_internal","is_forwarding","is_external","is_internal_prbs","is_forwarding_prbs","is_external_prbs"
2017-06-20T23:59:59Z,61,80,44,40,80,61,40,38,15,14,0,0,0,0,0,0,2,78,2,61,0,80,0,61,0,0,0,0,0,0,0,0,1,76,0,4,60,4,2,75,0,23,58,0,2,75,0,23,58,0,1,76,0,23,59,0,1,76,0,23,59,0,1,76,0,23,59,0,1,76,0,23,59,0,0,77,0,23,60,0,0,80,0,23,61,0,0,80,0,23,61,0,0,80,0,0,61,0,0,80,0,0,61,0,0,77,0,23,60,0,0,80,0,23,61,0,19,29,29,30,27,25
2017-06-21T23:59:59Z,62,81,45,41,81,62,42,39,17,16,0,0,0,0,0,0,2,79,2,62,0,81,0,62,0,0,0,0,0,0,0,0,1,77,0,4,61,5,2,76,0,23,59,0,2,76,0,24,59,0,1,77,0,23,60,0,1,77,0,24,60,0,1,77,0,24,60,0,1,77,0,24,60,0,0,78,0,23,61,0,0,81,0,24,62,0,0,81,0,24,62,0,0,81,0,0,62,0,0,81,0,0,62,0,2,76,0,24,59,0,0,81,0,24,62,0,19,30,29,30,28,26
2017-06-22T23:59:59Z,62,82,45,41,82,62,41,39,16,15,0,0,0,0,0,0,2,80,2,62,0,82,0,62,0,0,0,0,0,0,0,0,1,78,0,4,61,5,2,77,0,23,59,0,3,76,0,24,58,0,1,78,0,23,60,0,2,77,0,24,59,0,2,77,0,24,59,0,2,77,0,24,59,0,0,79,0,23,61,0,0,82,0,24,62,0,0,82,0,24,62,0,0,82,0,0,62,0,0,82,0,0,62,0,1,78,0,24,60,0,0,82,0,24,62,0,19,31,29,30,28,26
2017-06-23T23:59:57Z,61,80,44,40,80,61,42,38,14,13,0,0,0,0,0,0,2,78,2,61,0,80,0,61,0,0,0,0,0,0,0,0,1,76,0,4,60,4,1,76,0,22,59,0,1,76,0,23,59,0,1,76,0,22,59,0,2,75,0,23,58,0,2,75,0,23,58,0,2,75,0,23,58,0,0,77,0,22,60,0,2,78,0,23,59,0,2,78,0,23,59,0,0,80,0,0,61,0,0,80,0,0,61,0,2,75,0,23,58,0,0,80,0,23,61,0,18,31,28,29,29,25
2017-06-24T23:59:59Z,61,80,44,40,80,61,40,38,17,16,0,0,0,0,0,0,2,78,2,61,0,80,0,61,0,0,0,0,0,0,0,0,2,75,0,5,59,4,1,76,0,21,59,0,1,76,0,22,59,0,1,76,0,21,59,0,2,75,0,22,58,0,2,75,0,22,58,0,2,75,0,22,58,0,0,77,0,21,60,0,2,78,0,22,59,0,2,78,0,22,59,0,0,80,0,0,61,0,0,80,0,0,61,0,1,76,0,22,59,0,0,80,0,22,61,0,18,31,28,29,29,25
2017-06-25T23:59:58Z,61,82,47,41,82,61,45,39,18,16,0,0,0,0,0,0,2,80,2,61,0,82,0,61,0,0,0,0,0,0,0,0,1,78,0,3,60,4,1,78,0,21,59,0,1,78,0,22,59,0,2,77,0,22,58,0,1,77,1,22,58,1,1,78,0,22,59,0,1,78,0,22,59,0,0,79,0,21,60,0,1,81,0,22,60,0,1,81,0,22,60,0,0,82,0,0,61,0,0,82,0,0,61,0,0,79,0,22,60,0,0,82,0,22,61,0,17,33,29,28,30,25
2017-06-26T23:59:58Z,63,83,47,42,83,63,42,39,15,14,0,0,0,0,0,0,2,81,2,63,0,83,0,63,0,0,0,0,0,0,0,0,1,79,0,4,62,4,2,78,0,22,60,0,2,78,0,23,60,0,2,78,0,22,60,0,2,78,0,23,60,0,2,78,0,23,60,0,2,78,0,23,60,0,1,79,0,22,61,0,1,82,0,23,62,0,1,82,0,23,62,0,0,83,0,0,63,0,0,83,0,0,63,0,1,79,0,23,61,0,0,83,0,23,63,0,18,33,29,29,31,26
2017-06-27T23:59:59Z,62,82,46,41,82,62,40,37,16,14,0,0,0,0,0,0,2,80,2,62,0,82,0,62,0,0,0,0,0,0,0,0,1,78,0,4,61,3,2,77,0,20,59,0,2,77,0,21,59,0,1,78,0,20,60,0,2,77,0,21,59,0,2,77,0,21,59,0,2,77,0,21,59,0,0,79,0,20,61,0,1,81,0,21,61,0,1,81,0,21,61,0,0,82,0,0,62,0,0,82,0,0,62,0,0,79,0,21,61,0,0,82,0,21,62,0,17,33,29,27,31,25
2017-06-28T23:59:58Z,61,82,45,40,82,61,43,38,15,13,0,0,0,0,0,0,2,80,2,61,0,82,0,61,0,0,0,0,0,0,0,0,1,78,0,4,60,2,1,78,0,21,59,0,1,78,0,21,59,0,1,78,0,21,59,0,1,78,0,21,59,0,1,78,0,21,59,0,1,78,0,21,59,0,0,79,0,20,60,0,0,82,0,21,61,0,0,82,0,21,61,0,0,82,0,0,61,0,0,82,0,0,61,0,0,79,0,20,60,0,0,82,0,21,61,0,17,32,30,28,30,24
2017-06-29T23:59:59Z,61,82,45,40,82,61,42,38,13,11,0,0,0,0,0,0,2,80,3,61,0,82,0,61,0,0,0,0,0,0,0,0,1,78,0,5,60,2,1,78,0,21,59,0,1,78,0,21,59,0,2,77,0,21,58,0,2,77,0,21,58,0,2,77,0,21,58,0,2,77,0,21,58,0,1,78,0,19,59,0,0,82,0,21,61,0,0,82,0,21,61,0,0,82,0,0,61,0,0,82,0,0,61,0,0,79,0,19,60,0,0,82,0,21,61,0,18,31,30,28,29,25
2017-06-30T23:59:59Z,59,80,43,38,80,59,41,37,14,12,0,0,0,0,0,0,2,78,3,59,0,80,0,59,0,0,0,0,0,0,0,0,1,76,0,4,58,2,1,76,0,20,57,0,1,76,0,20,57,0,1,76,0,20,57,0,1,76,0,20,57,0,1,76,0,20,57,0,1,76,0,20,57,0,0,77,0,18,58,0,0,80,0,20,59,0,0,80,0,20,59,0,0,80,0,0,59,0,0,80,0,0,59,0,0,77,0,18,58,0,0,80,0,20,59,0,15,32,30,25,30,24
2017-07-01T23:59:59Z,61,82,45,40,82,61,42,38,14,12,0,0,0,0,0,0,2,80,2,61,0,82,0,61,0,0,0,0,0,0,0,0,1,78,0,5,60,2,2,77,0,21,58,0,2,77,0,21,58,0,1,78,0,21,59,0,1,78,0,21,59,0,1,78,0,21,59,0,1,78,0,21,59,0,0,79,0,19,60,0,1,81,0,21,60,0,1,81,0,21,60,0,0,82,0,0,61,0,0,82,0,0,61,0,0,79,0,19,60,0,0,82,0,21,61,0,17,32,30,27,30,25
2017-07-02T23:59:59Z,62,83,46,42,83,62,40,39,15,13,0,0,0,0,0,0,2,81,3,62,0,83,0,62,0,0,0,0,0,0,0,0,1,79,0,4,61,2,1,79,0,22,60,0,1,79,0,22,60,0,1,79,0,22,60,0,1,79,0,22,60,0,1,79,0,22,60,0,1,79,0,22,60,0,0,80,0,20,61,0,0,83,0,22,62,0,0,83,0,22,62,0,0,83,0,0,62,0,0,83,0,0,62,0,0,80,0,20,61,0,0,83,0,22,62,0,18,32,30,29,30,25
2017-07-03T23:59:59Z,62,85,48,43,85,62,44,40,15,13,0,0,0,0,0,0,3,82,2,62,0,85,0,62,0,0,0,0,0,0,0,0,1,81,0,4,61,2,2,80,0,21,59,0,2,80,0,21,59,0,2,80,0,21,59,0,2,80,0,21,59,0,2,80,0,21,59,0,2,80,0,21,59,0,1,81,0,19,60,0,1,84,0,21,61,0,1,84,0,21,61,0,0,85,0,0,62,0,0,85,0,0,62,0,0,82,0,19,61,0,0,85,0,21,62,0,22,30,30,30,28,25
2017-07-04T23:59:58Z,64,87,49,44,87,64,45,41,16,14,0,0,0,0,0,0,3,84,3,64,0,87,0,64,0,0,0,0,0,0,0,0,1,83,0,4,63,4,2,82,0,22,61,0,2,82,0,23,61,0,1,83,0,22,62,0,1,83,0,23,62,0,1,83,0,23,62,0,1,83,0,23,62,0,0,84,0,20,63,0,0,87,0,23,64,0,0,87,0,23,64,0,0,87,0,0,64,0,0,87,0,0,64,0,0,84,0,21,63,0,0,87,0,23,64,0,22,32,30,31,30,27
2017-07-05T23:59:59Z,63,86,48,43,86,63,44,40,15,13,0,0,0,0,0,0,3,83,2,63,0,86,0,63,0,0,0,0,0,0,0,0,1,80,2,4,60,4,1,81,1,21,60,1,2,80,1,22,59,1,1,81,1,21,60,1,1,81,1,22,60,1,1,81,1,22,60,1,1,81,1,22,60,1,0,82,1,19,61,1,1,84,1,22,61,1,1,84,1,22,61,1,0,85,1,0,62,1,0,85,1,0,62,1,0,82,1,20,61,1,0,86,0,22,63,0,21,32,30,29,30,26
2017-07-06T23:59:59Z,63,86,48,43,86,63,42,40,15,13,0,0,0,0,0,0,3,83,3,63,0,86,0,63,0,0,0,0,0,0,0,0,1,82,0,4,62,3,2,81,0,21,60,0,2,81,0,22,60,0,1,82,0,21,61,0,1,82,0,22,61,0,2,81,0,22,60,0,2,81,0,22,60,0,0,83,0,19,62,0,2,84,0,22,61,0,2,84,0,22,61,0,0,86,0,0,63,0,0,86,0,0,63,0,1,82,0,20,61,0,0,86,0,22,63,0,21,32,30,29,30,26
2017-07-07T23:59:59Z,62,85,47,42,85,62,44,40,13,11,0,0,0,0,0,0,3,82,3,62,0,85,0,62,0,0,0,0,0,0,0,0,1,81,0,4,61,2,2,80,0,21,59,0,2,80,0,21,59,0,2,80,0,21,59,0,2,80,0,21,59,0,2,80,0,21,59,0,2,80,0,21,59,0,1,81,0,19,60,0,2,83,0,21,61,0,1,84,0,21,61,0,0,85,0,0,62,0,0,85,0,0,62,0,0,82,0,19,61,0,0,85,0,21,62,0,20,32,30,28,30,25
2017-07-08T23:59:59Z,62,85,47,42,85,62,45,40,15,13,0,0,0,0,0,0,3,82,2,62,0,85,0,62,0,0,0,0,0,0,0,0,1,81,0,3,61,3,1,81,0,20,60,0,1,81,0,21,60,0,1,81,0,20,60,0,1,81,0,21,60,0,1,81,0,21,60,0,1,81,0,21,60,0,0,82,0,18,61,0,0,85,0,21,62,0,0,85,0,21,62,0,0,85,0,0,62,0,0,85,0,0,62,0,1,81,0,19,60,0,0,85,0,21,62,0,21,31,30,29,29,25
2017-07-09T23:59:59Z,62,84,48,43,84,62,45,41,14,12,0,0,0,0,0,0,3,81,2,62,0,84,0,62,0,0,0,0,0,0,0,0,1,80,0,4,61,3,1,80,0,22,60,0,1,80,0,23,60,0,2,79,0,23,59,0,2,79,0,23,59,0,2,79,0,23,59,0,2,79,0,23,59,0,0,81,0,20,61,0,2,82,0,23,60,0,2,82,0,23,60,0,0,84,0,0,62,0,0,84,0,0,62,0,1,80,0,21,60,0,0,84,0,23,62,0,21,29,31,30,28,27
2017-07-10T23:59:57Z,62,85,48,43,85,62,45,41,15,13,0,0,0,0,0,0,3,82,2,62,0,85,0,62,0,0,0,0,0,0,0,0,1,81,0,4,61,3,2,80,0,22,59,0,2,80,0,23,59,0,1,81,0,22,60,0,2,80,0,23,59,0,2,80,0,23,60,0,2,80,0,23,59,0,0,82,0,20,61,0,2,83,0,23,60,0,2,83,0,23,60,0,0,85,0,0,62,0,0,85,0,0,62,0,0,82,0,21,61,0,0,85,0,23,62,0,20,31,31,30,29,27
2017-07-11T23:59:55Z,61,84,47,43,83,61,44,41,15,14,0,0,0,0,0,0,3,80,2,61,0,83,0,61,0,0,0,0,0,0,0,0,1,79,0,4,60,3,1,79,0,23,59,0,1,79,0,23,58,0,2,78,0,23,58,0,3,77,0,23,57,0,2,78,0,23,57,0,2,78,0,23,57,0,1,79,0,21,59,0,2,81,0,23,59,0,2,81,0,23,59,0,0,83,0,0,61,0,0,83,0,0,61,0,0,80,0,21,59,0,0,84,0,23,61,0,20,29,31,31,27,27
2017-07-12T23:59:58Z,62,85,48,43,85,62,45,41,14,12,0,0,0,0,0,0,3,82,2,62,0,85,0,62,0,0,0,0,0,0,0,0,1,81,0,4,61,2,1,81,0,22,60,0,1,81,0,22,60,0,1,81,0,22,60,0,1,81,0,22,60,0,1,81,0,22,60,0,1,81,0,22,60,0,0,82,0,20,61,0,1,84,0,22,61,0,1,84,0,22,61,0,0,85,0,0,62,0,0,85,0,0,62,0,0,82,0,20,61,0,0,85,0,22,62,0,21,30,31,30,28,26
2017-07-13T23:59:58Z,60,83,47,42,83,60,44,40,14,12,0,0,0,0,0,0,3,80,3,60,0,83,0,60,0,0,0,0,0,0,0,0,2,78,0,4,59,2,1,79,0,22,58,0,1,79,0,22,58,0,1,79,0,22,58,0,1,79,0,22,58,0,1,79,0,22,58,0,1,79,0,22,58,0,0,80,0,20,59,0,1,82,0,22,60,0,0,83,0,22,60,0,0,83,0,0,60,0,0,83,0,0,60,0,0,80,0,20,59,0,0,83,0,22,60,0,21,28,31,31,26,26
2017-07-14T23:59:59Z,61,84,48,43,84,61,45,41,15,13,0,0,0,0,0,0,3,81,3,61,0,84,0,61,0,0,0,0,0,0,0,0,1,80,0,4,60,3,1,80,0,21,59,0,1,80,0,22,59,0,1,80,0,21,59,0,1,80,0,22,59,0,1,80,0,22,59,0,1,80,0,22,59,0,0,81,0,19,60,0,1,83,0,22,60,0,2,82,0,22,59,0,0,84,0,0,61,0,0,84,0,0,61,0,0,81,0,20,60,0,0,84,0,22,61,0,20,33,28,29,30,25
2017-07-15T23:59:59Z,59,81,46,41,81,59,44,39,14,12,0,0,0,0,0,0,3,78,2,59,0,81,0,59,0,0,0,0,0,0,0,0,1,76,1,3,57,3,1,77,0,20,57,0,2,76,0,21,56,0,1,77,0,20,57,0,2,76,0,21,56,0,2,76,0,21,56,0,2,76,0,21,56,0,0,78,0,18,58,0,1,80,0,21,58,0,1,80,0,21,58,0,0,81,0,0,59,0,0,81,0,0,59,0,0,78,0,19,58,0,0,81,0,21,59,0,21,30,27,28,28,23
2017-07-16T23:59:59Z,61,83,47,42,83,61,44,40,15,13,0,0,0,0,0,0,3,80,2,61,0,83,0,61,0,0,0,0,0,0,0,0,1,78,1,4,59,3,2,78,0,21,58,0,3,77,0,22,57,0,1,79,0,21,59,0,2,78,0,22,58,0,2,78,0,22,58,0,1,79,0,22,59,0,0,80,0,19,60,0,2,81,0,22,59,0,2,81,0,22,59,0,0,83,0,0,61,0,0,83,0,0,61,0,1,79,0,20,59,0,0,83,0,22,61,0,22,31,27,29,29,24
2017-07-17T23:59:59Z,60,82,46,41,82,60,43,39,13,11,0,0,0,0,0,0,3,79,2,60,0,82,0,60,0,0,0,0,0,0,0,0,1,78,0,4,59,2,2,77,0,20,57,0,2,77,0,20,57,0,1,78,0,20,58,0,1,78,0,20,58,0,1,78,0,20,58,0,1,78,0,20,58,0,0,79,0,18,59,0,0,82,0,20,60,0,0,82,0,20,60,0,0,82,0,0,60,0,0,82,0,0,60,0,0,79,0,18,59,0,0,82,0,20,60,0,23,30,26,29,28,22
2017-07-18T23:59:57Z,58,80,44,39,80,58,42,37,13,11,0,0,0,0,0,0,3,77,2,58,0,80,0,58,0,0,0,0,0,0,0,0,1,76,0,3,57,2,1,76,0,20,56,0,1,76,0,20,56,0,1,76,0,20,56,0,1,76,0,20,56,0,1,76,0,20,56,0,1,76,0,20,56,0,0,77,0,18,57,0,0,80,0,20,58,0,0,80,0,20,58,0,0,80,0,0,58,0,0,80,0,0,58,0,0,77,0,18,57,0,0,80,0,20,58,0,22,29,26,29,27,21
2017-07-19T23:59:58Z,57,78,43,39,78,57,40,36,14,12,0,0,0,0,0,0,3,75,2,57,0,78,0,57,0,0,0,0,0,0,0,0,1,74,0,4,56,2,2,73,0,20,54,0,2,73,0,20,54,0,1,74,0,20,55,0,1,74,0,20,55,0,1,74,0,20,55,0,1,74,0,20,55,0,0,75,0,18,56,0,0,78,0,20,57,0,0,78,0,20,57,0,0,78,0,0,57,0,0,78,0,0,57,0,0,75,0,18,56,0,0,78,0,20,57,0,23,28,24,29,26,21
2017-07-20T23:59:57Z,59,80,45,41,80,59,42,38,14,12,0,0,0,0,0,0,3,77,2,59,0,80,0,59,0,0,0,0,0,0,0,0,1,76,0,4,58,3,2,75,0,21,56,0,2,75,0,22,56,0,1,76,0,21,57,0,1,76,0,22,57,0,1,76,0,22,57,0,1,76,0,22,57,0,0,77,0,19,58,0,0,80,0,22,59,0,0,80,0,22,59,0,0,80,0,0,59,0,0,80,0,0,59,0,1,76,0,20,57,0,0,80,0,22,59,0,22,31,24,30,29,22
2017-07-21T23:59:59Z,59,80,44,40,80,59,41,36,15,13,0,0,0,0,0,0,3,77,2,59,0,80,0,59,0,0,0,0,0,0,0,0,2,75,0,4,58,3,1,76,0,20,57,0,1,76,0,21,57,0,2,75,0,20,56,0,3,74,0,21,55,0,3,74,0,21,55,0,3,74,0,21,55,0,1,76,0,18,57,0,0,80,0,21,59,0,0,80,0,21,59,0,0,80,0,0,59,0,0,80,0,0,59,0,0,77,0,19,58,0,0,80,0,21,59,0,24,29,24,29,27,22
2017-07-22T23:59:56Z,58,79,44,40,79,58,42,36,15,13,0,0,0,0,0,0,3,76,3,58,0,79,0,58,0,0,0,0,0,0,0,0,1,75,0,4,57,3,2,74,0,20,55,0,3,73,0,21,54,0,2,74,0,20,55,0,3,73,0,21,54,0,3,73,0,21,54,0,4,72,0,21,54,0,1,75,0,18,56,0,0,79,0,21,58,0,0,79,0,21,58,0,0,79,0,0,58,0,0,79,0,0,58,0,1,75,0,19,56,0,0,79,0,21,58,0,24,28,24,29,26,22
2017-07-23T23:59:59Z,58,79,43,39,79,58,41,35,15,13,0,0,0,0,0,0,3,76,2,58,0,79,0,58,0,0,0,0,0,0,0,0,1,75,0,4,57,2,2,74,0,20,55,0,2,74,0,20,55,0,1,75,0,20,56,0,1,75,0,20,56,0,2,74,0,20,56,0,2,74,0,20,56,0,0,76,0,18,57,0,0,79,0,20,58,0,0,79,0,20,58,0,0,79,0,0,58,0,0,79,0,0,58,0,0,76,0,18,57,0,0,79,0,20,58,0,22,30,24,28,28,21
2017-07-24T23:59:57Z,57,78,43,39,78,57,41,35,14,12,0,0,0,0,0,0,3,75,2,57,0,78,0,57,0,0,0,0,0,0,0,0,1,73,1,3,55,3,1,74,0,19,55,0,2,73,0,20,54,0,1,74,0,19,55,0,1,74,0,20,55,0,2,73,0,20,55,0,1,74,0,20,55,0,0,75,0,17,56,0,1,77,0,20,56,0,1,77,0,20,56,0,0,78,0,0,57,0,0,78,0,0,57,0,0,75,0,18,56,0,0,78,0,20,57,0,21,30,24,27,28,21
2017-07-25T23:59:55Z,56,77,42,38,77,56,40,34,14,12,0,0,0,0,0,0,3,74,2,56,0,77,0,56,0,0,0,0,0,0,0,0,1,73,0,3,55,2,1,73,0,19,54,0,1,73,0,19,54,0,1,73,0,19,54,0,1,73,0,19,54,0,1,73,0,19,54,0,1,73,0,19,54,0,0,74,0,17,55,0,0,77,0,19,56,0,0,77,0,19,56,0,0,77,0,0,56,0,0,77,0,0,56,0,0,74,0,17,55,0,0,77,0,19,56,0,22,28,24,28,26,20
2017-07-26T23:59:56Z,58,79,44,40,79,58,42,36,15,13,0,0,0,0,0,0,3,76,2,58,0,79,0,58,0,0,0,0,0,0,0,0,1,74,1,4,56,3,2,74,0,20,55,0,3,73,0,21,54,0,1,75,0,20,56,0,2,74,0,21,55,0,3,73,0,21,55,0,2,74,0,21,55,0,0,76,0,18,57,0,1,78,0,21,57,0,1,78,0,21,57,0,0,79,0,0,58,0,0,79,0,0,58,0,1,75,0,19,56,0,0,79,0,21,58,0,22,30,24,28,28,22
2017-07-27T23:59:59Z,58,79,44,39,79,58,42,35,14,11,0,0,0,0,0,0,3,76,2,58,0,79,0,58,0,0,0,0,0,0,0,0,1,75,0,4,57,2,2,74,0,19,55,0,2,74,0,20,55,0,2,74,0,19,56,0,2,74,0,20,56,0,3,73,0,20,55,0,3,73,0,20,55,0,0,76,0,17,57,0,0,79,0,20,58,0,0,79,0,20,58,0,0,79,0,0,58,0,0,79,0,0,58,0,0,76,0,18,57,0,0,79,0,20,58,0,22,30,24,28,28,21
2017-07-28T23:59:59Z,56,77,42,37,77,56,40,33,14,11,0,0,0,0,0,0,3,74,2,56,0,77,0,56,0,0,0,0,0,0,0,0,1,73,0,3,55,1,1,73,0,18,54,0,1,73,0,18,54,0,1,73,0,18,54,0,1,73,0,18,54,0,1,73,0,18,54,0,1,73,0,18,54,0,0,74,0,16,55,0,0,77,0,18,56,0,0,77,0,18,56,0,0,77,0,0,56,0,0,77,0,0,56,0,0,74,0,16,55,0,0,77,0,18,56,0,20,30,24,26,28,19
2017-07-29T23:59:57Z,58,78,43,39,78,58,41,35,14,11,0,0,0,0,0,0,3,75,3,58,0,78,0,58,0,0,0,0,0,0,0,0,1,74,0,4,57,2,2,73,0,20,55,0,2,73,0,20,55,0,1,74,0,20,56,0,1,74,0,20,56,0,1,74,0,20,56,0,1,74,0,20,56,0,0,75,0,18,57,0,1,77,0,20,57,0,1,77,0,20,57,0,0,78,0,0,58,0,0,78,0,0,58,0,0,75,0,18,57,0,0,78,0,20,58,0,21,31,23,28,29,20
2017-07-30T23:59:58Z,58,78,44,39,78,58,42,36,16,13,0,0,0,0,0,0,3,75,2,58,0,78,0,58,0,0,0,0,0,0,0,0,1,73,1,4,56,2,2,73,0,19,55,0,3,72,0,20,54,0,2,73,0,19,55,0,2,73,0,20,55,0,3,72,0,20,54,0,2,73,0,20,55,0,1,74,0,17,56,0,0,78,0,20,58,0,0,78,0,20,58,0,0,78,0,0,58,0,0,78,0,0,58,0,0,75,0,18,57,0,0,78,0,20,58,0,19,33,23,27,31,20
2017-07-31T23:59:59Z,55,76,44,38,76,55,42,35,15,12,0,0,0,0,0,0,3,73,3,55,0,76,0,55,0,0,0,0,0,0,0,0,2,71,0,4,54,1,2,71,0,19,52,0,2,71,0,19,52,0,1,72,0,19,53,0,1,72,0,19,53,0,1,72,0,19,53,0,2,71,0,19,53,0,0,73,0,17,54,0,1,75,0,19,54,0,0,76,0,19,55,0,0,76,0,0,55,0,0,76,0,0,55,0,0,73,0,17,54,0,0,76,0,19,55,0,21,28,24,28,26,20
2017-08-01T23:59:57Z,55,76,43,37,75,55,41,34,15,12,0,0,0,0,0,0,3,73,2,55,0,75,0,55,0,0,0,0,0,0,0,0,1,72,0,3,54,1,1,72,0,18,53,0,1,72,0,18,53,0,1,72,0,18,53,0,1,72,0,18,53,0,2,71,0,18,53,0,2,71,0,18,53,0,0,73,0,16,54,0,0,76,0,18,55,0,0,76,0,18,55,0,0,76,0,0,55,0,0,76,0,0,55,0,0,73,0,16,54,0,0,76,0,18,55,0,20,29,24,27,27,19
2017-08-02T23:59:58Z,58,80,47,40,80,58,45,37,16,13,0,0,0,0,0,0,3,77,2,58,0,80,0,58,0,0,0,0,0,0,0,0,1,76,0,4,57,2,2,75,0,19,55,0,2,75,0,20,55,0,2,75,0,19,55,0,2,75,0,20,55,0,2,75,0,20,55,0,3,74,0,20,55,0,1,76,0,17,56,0,3,77,0,21,56,0,3,77,0,21,56,0,0,80,0,0,58,0,0,80,0,0,58,0,0,77,0,18,57,0,0,80,0,20,58,0,18,35,24,27,31,21
2017-08-03T23:59:59Z,57,78,45,39,78,57,43,36,15,12,0,0,0,0,0,0,3,75,2,57,0,78,0,57,0,0,0,0,0,0,0,0,1,74,0,4,56,1,2,73,0,19,54,0,2,73,0,19,54,0,2,73,0,19,55,0,1,74,0,19,55,0,2,73,0,19,55,0,1,74,0,19,55,0,0,75,0,17,56,0,1,77,0,19,56,0,1,77,0,19,56,0,0,78,0,0,57,0,0,78,0,0,57,0,0,75,0,17,56,0,0,78,0,19,57,0,21,30,24,28,28,20
2017-08-04T23:59:59Z,58,80,45,40,80,58,43,37,14,12,0,0,0,0,0,0,3,77,2,58,0,80,0,58,0,0,0,0,0,0,0,0,1,76,0,4,57,2,2,75,0,19,55,0,2,75,0,20,55,0,1,76,0,19,56,0,1,76,0,20,56,0,1,76,0,20,56,0,1,76,0,20,56,0,0,77,0,17,57,0,0,80,0,20,58,0,0,80,0,20,58,0,0,80,0,0,58,0,0,80,0,0,58,0,0,77,0,18,57,0,0,80,0,20,58,0,20,31,26,27,29,21
2017-08-05T23:59:57Z,58,80,46,40,79,58,44,37,15,12,0,0,0,0,0,0,3,77,3,58,0,80,0,58,0,0,0,0,0,0,0,0,1,76,0,4,57,1,2,75,0,20,55,0,2,75,0,20,55,0,1,76,0,20,56,0,1,76,0,20,56,0,1,76,0,20,56,0,1,76,0,20,56,0,0,77,0,18,57,0,0,80,0,20,58,0,0,80,0,20,58,0,0,80,0,0,58,0,0,80,0,0,58,0,0,77,0,18,57,0,0,80,0,20,58,0,20,30,27,28,28,22
2017-08-06T23:59:57Z,60,82,46,40,82,60,44,37,16,13,0,0,0,0,0,0,3,79,2,60,0,82,0,60,0,0,0,0,0,0,0,0,1,78,0,3,59,2,1,78,0,19,58,0,1,78,0,20,58,0,1,78,0,19,58,0,1,78,0,20,58,0,2,77,0,20,57,0,2,77,0,20,57,0,0,79,0,17,59,0,0,82,0,20,60,0,0,82,0,20,60,0,0,82,0,0,60,0,0,82,0,0,60,0,1,78,0,18,58,0,0,82,0,20,60,0,20,32,27,27,30,22
2017-08-07T23:59:59Z,61,83,45,41,83,61,43,37,15,13,0,0,0,0,0,0,3,80,2,61,0,83,0,61,0,0,0,0,0,0,0,0,1,78,1,3,59,3,1,79,0,21,59,0,2,78,0,22,58,0,1,79,0,21,59,0,2,78,0,22,58,0,2,78,0,22,58,0,2,78,0,22,58,0,0,80,0,19,60,0,0,83,0,21,61,0,0,83,0,21,61,0,0,83,0,0,61,0,0,83,0,0,61,0,0,80,0,19,60,0,0,83,0,21,61,0,22,31,27,30,29,22
2017-08-08T23:59:59Z,60,82,44,40,82,60,41,36,14,12,0,0,0,0,0,0,3,79,2,60,0,82,0,60,0,0,0,0,0,0,0,0,1,78,0,3,59,2,1,78,0,20,58,0,1,78,0,20,58,0,1,78,0,20,58,0,1,78,0,20,58,0,2,77,0,20,58,0,2,77,0,20,58,0,0,79,0,18,59,0,0,82,0,20,60,0,0,82,0,20,60,0,0,82,0,0,60,0,0,82,0,0,60,0,0,79,0,18,59,0,0,82,0,20,60,0,22,31,26,29,29,21
2017-08-09T23:59:58Z,61,83,46,42,83,61,44,38,14,12,0,0,0,0,0,0,3,80,2,61,0,83,0,61,0,0,0,0,0,0,0,0,1,79,0,4,60,2,2,78,0,22,58,0,2,78,0,22,58,0,1,79,0,22,59,0,2,78,0,22,58,0,1,79,0,22,59,0,1,79,0,22,59,0,0,80,0,20,60,0,0,83,0,22,61,0,0,83,0,22,61,0,0,83,0,0,61,0,0,83,0,0,61,0,0,80,0,20,60,0,0,83,0,22,61,0,22,31,27,30,29,23
2017-08-10T23:59:56Z,61,83,47,43,83,61,45,39,16,14,0,0,0,0,0,0,3,80,2,61,0,83,0,61,0,0,0,0,0,0,0,0,1,79,0,4,60,3,2,78,0,22,58,0,2,78,0,23,58,0,1,79,0,22,59,0,2,78,0,23,58,0,3,77,0,23,58,0,2,78,0,23,58,0,0,80,0,20,60,0,2,81,0,23,59,0,2,81,0,23,59,0,0,83,0,0,61,0,0,83,0,0,61,0,0,80,0,21,60,0,0,83,0,23,61,0,23,30,27,31,28,24
2017-08-11T23:59:57Z,60,82,46,42,82,60,44,38,16,14,0,0,0,0,0,0,3,79,2,60,0,82,0,60,0,0,0,0,0,0,0,0,1,78,0,3,59,3,1,78,0,21,58,0,1,78,0,22,58,0,1,78,0,21,58,0,2,77,0,22,57,0,2,77,0,22,57,0,2,77,0,22,57,0,0,79,0,19,59,0,0,82,0,22,60,0,0,82,0,22,60,0,0,82,0,0,60,0,0,82,0,0,60,0,1,78,0,20,58,0,0,82,0,22,60,0,20,32,27,30,29,23
2017-08-12T23:59:57Z,62,84,48,44,84,62,46,40,16,15,0,0,0,0,0,0,3,81,3,62,0,84,0,62,0,0,0,0,0,0,0,0,1,80,0,4,61,4,2,79,0,22,59,0,2,79,0,24,59,0,2,79,0,22,59,0,2,79,0,24,59,0,2,79,0,24,59,0,2,79,0,24,59,0,1,80,0,20,60,0,1,83,0,24,61,0,1,83,0,24,61,0,0,84,0,0,62,0,0,84,0,0,62,0,1,80,0,22,60,0,0,84,0,24,62,0,21,32,28,30,30,25
2017-08-13T23:59:57Z,64,87,50,45,87,64,48,41,16,15,0,0,0,0,0,0,3,84,3,64,0,87,0,64,0,0,0,0,0,0,0,0,1,83,0,4,63,4,2,82,0,23,61,0,2,82,0,25,61,0,1,83,0,23,62,0,1,83,0,25,62,0,1,83,0,25,62,0,1,83,0,25,62,0,0,84,0,21,63,0,0,87,0,25,64,0,0,87,0,25,64,0,0,87,0,0,64,0,0,87,0,0,64,0,0,84,0,23,63,0,0,87,0,25,64,0,23,33,28,31,31,25
2017-08-14T23:59:58Z,63,84,46,43,84,63,44,39,14,14,0,0,0,0,0,0,3,81,2,63,0,84,0,63,0,0,0,0,0,0,0,0,1,80,0,4,62,4,2,79,0,21,60,0,2,79,0,23,60,0,2,79,0,21,61,0,2,79,0,23,60,0,2,79,0,23,60,0,3,78,0,23,60,0,0,81,0,19,62,0,2,82,0,23,61,0,2,82,0,23,61,0,0,84,0,0,63,0,0,84,0,0,63,0,0,81,0,21,62,0,0,84,0,23,63,0,22,34,25,29,32,23
2017-08-15T23:59:58Z,61,82,45,42,82,61,43,38,13,13,0,0,0,0,0,0,3,79,2,61,0,82,0,61,0,0,0,0,0,0,0,0,1,78,0,4,60,3,2,77,0,20,58,0,3,76,0,21,57,0,1,78,0,20,59,0,1,78,0,21,59,0,2,77,0,21,59,0,1,78,0,21,59,0,0,79,0,18,60,0,0,82,0,21,61,0,0,82,0,21,61,0,0,82,0,0,61,0,0,81,1,0,61,1,1,78,0,20,59,0,0,82,0,21,61,0,21,33,25,28,31,22
2017-08-16T23:59:58Z,60,78,43,41,78,60,41,37,13,13,0,0,0,0,0,0,3,75,2,60,0,78,0,60,0,0,0,0,0,0,0,0,1,74,0,4,59,5,1,74,0,19,58,2,1,74,0,20,58,2,2,73,0,19,58,2,2,73,0,20,58,2,1,74,0,20,58,2,2,73,0,20,58,2,0,75,0,17,59,2,0,78,0,20,60,2,0,78,0,20,60,2,0,78,0,0,60,2,0,78,0,0,60,2,0,75,0,18,59,2,0,78,0,20,60,2,19,31,25,27,30,22
2017-08-17T23:59:58Z,58,78,41,39,78,58,39,35,12,12,0,0,0,0,0,0,3,75,2,58,0,78,0,58,0,0,0,0,0,0,0,0,1,74,0,3,57,3,1,74,0,17,56,0,1,74,0,18,56,0,1,74,0,17,56,0,2,73,0,18,56,0,1,74,0,18,56,0,1,74,0,18,56,0,0,75,0,15,57,0,1,77,0,19,57,0,1,77,0,19,57,0,0,78,0,0,58,0,0,78,0,0,58,0,0,75,0,16,57,0,0,78,0,18,58,0,19,32,24,25,30,20
2017-08-18T23:59:59Z,59,79,41,39,79,59,39,35,14,13,0,0,0,0,0,0,3,76,2,59,0,79,0,59,0,0,0,0,0,0,0,0,1,75,0,3,58,3,1,75,0,17,57,0,1,75,0,18,57,0,1,75,0,17,57,0,2,74,0,18,56,0,2,74,0,18,56,0,2,74,0,18,56,0,0,76,0,15,58,0,1,78,0,18,58,0,1,78,0,18,58,0,0,79,0,0,59,0,0,79,0,0,59,0,1,75,0,17,57,0,0,79,0,18,59,0,18,35,23,24,33,20
2017-08-19T23:59:59Z,58,78,40,38,78,58,38,34,13,12,0,0,0,0,0,0,3,75,3,58,0,78,0,58,0,0,0,0,0,0,0,0,1,74,0,3,57,2,1,74,0,17,56,0,1,74,0,17,56,0,1,74,0,17,56,0,1,74,0,17,56,0,1,74,0,17,56,0,1,74,0,17,56,0,0,75,0,15,57,0,0,78,0,17,58,0,0,78,0,17,58,0,0,78,0,0,58,0,0,78,0,0,58,0,0,75,0,15,57,0,0,78,0,17,58,0,18,34,23,24,32,19
2017-08-20T23:59:57Z,59,78,42,40,78,59,40,36,15,14,0,0,0,0,0,0,3,75,2,59,0,78,0,59,0,0,0,0,0,0,0,0,2,73,0,4,58,3,2,73,0,18,56,0,2,73,0,19,56,0,1,74,0,18,57,0,1,74,0,19,57,0,1,74,0,19,57,0,1,74,0,19,57,0,0,75,0,16,58,0,2,76,0,19,57,0,2,76,0,19,57,0,0,78,0,0,59,0,0,78,0,0,59,0,1,74,0,17,57,0,0,78,0,20,59,0,19,35,21,25,33,20
2017-08-21T23:59:59Z,60,79,42,40,79,60,39,36,15,14,0,0,0,0,0,0,3,76,2,60,0,79,0,60,0,0,0,0,0,0,0,0,1,75,0,4,59,3,2,74,0,18,57,0,2,74,0,19,57,0,2,74,0,18,58,0,2,74,0,20,57,0,1,75,0,19,58,0,1,75,0,19,58,0,0,76,0,16,59,0,0,79,0,19,60,0,0,79,0,19,60,0,0,79,0,0,60,0,0,79,0,0,60,0,0,76,0,17,59,0,0,79,0,19,60,0,20,35,21,26,33,20
2017-08-22T23:59:58Z,59,78,41,39,78,59,39,35,13,12,0,0,0,0,0,0,3,75,2,59,0,78,0,59,0,0,0,0,0,0,0,0,1,74,0,4,58,2,2,73,0,18,56,0,2,73,0,18,56,0,1,74,0,18,57,0,1,74,0,18,57,0,1,74,0,18,57,0,2,73,0,18,57,0,0,75,0,16,58,0,0,78,0,18,59,0,0,78,0,18,59,0,0,78,0,0,59,0,0,78,0,0,59,0,0,75,0,16,58,0,0,78,0,18,59,0,20,34,21,26,32,19
2017-08-23T23:59:59Z,58,77,41,38,77,58,39,34,12,11,0,0,0,0,0,0,3,74,3,58,0,77,0,58,0,0,0,0,0,0,0,0,1,73,0,3,57,2,1,73,0,18,56,0,1,73,0,18,56,0,1,73,0,18,56,0,1,73,0,18,56,0,1,73,0,18,56,0,1,73,0,18,56,0,0,74,0,16,57,0,0,77,0,18,58,0,0,77,0,18,58,0,0,77,0,0,58,0,0,77,0,0,58,0,0,74,0,16,57,0,0,77,0,18,58,0,17,35,22,24,33,19
2017-08-24T23:59:58Z,60,78,44,41,78,60,41,37,14,13,0,0,0,0,0,0,2,76,2,60,0,78,0,60,0,0,0,0,0,0,0,0,1,74,0,4,59,3,2,73,0,20,57,0,2,73,0,21,57,0,2,73,0,21,57,0,1,74,0,21,58,0,1,74,0,21,58,0,2,73,0,21,58,0,0,75,0,18,59,0,0,77,1,21,59,1,0,77,1,21,59,1,0,77,1,0,59,1,0,77,1,0,59,1,0,75,0,19,59,0,0,78,0,21,60,0,15,37,23,25,35,22
2017-08-25T23:59:58Z,59,77,43,40,77,59,41,36,13,12,0,0,0,0,0,0,2,75,1,59,0,77,0,59,0,0,0,0,0,0,0,0,1,73,0,4,58,2,2,72,0,21,56,0,2,72,0,21,56,0,1,73,0,21,57,0,1,73,0,21,57,0,2,72,0,21,57,0,1,73,0,21,57,0,0,74,0,19,58,0,0,77,0,21,59,0,0,77,0,21,59,0,0,77,0,0,59,0,0,77,0,0,59,0,0,74,0,19,58,0,0,77,0,21,59,0,16,35,23,26,33,21